Location: Krakow
(50.0830°N, 19.9170°E)
Time: 09:33:54
(UTC+01:00)

Transit 2A - Pass Details

Date: 09 February 2023
Orbit: 591 x 964 km, 66.7° (Epoch: 21 March)

Event Time Altitude Azimuth Distance (km) Brightness Sun altitude
Rises 20:53:53 0° 317° (NW) 3,377 10.1 -39.1°
Reaches altitude 10° 20:57:01 10° 335° (NNW) 2,510 9.1 -39.5°
Enters shadow 20:58:43 16° 350° (N) 2,170 8.6 -39.8°
Maximum altitude 21:01:11 20° 20° (NNE) 1,988 - -40.1°
Drops below altitude 10° 21:05:33 10° 65° (ENE) 2,648 - -40.7°
Sets 21:08:57 0° 83° (E) 3,627 - -41.2°
